Location: Battersea Observatory
(44.4318°N, 76.3841°W)
Time: 22:30:42
(UTC-05:00)

Altair - All Passes

Search period start: 27 January 2022 00:00
Search period end: 06 February 2022 00:00
Orbit: 1501 x 1683 km, 47.2° (Epoch: 27 January)

Date Brightness Start Highest point End Pass type
(mag) Time Alt. Az. Time Alt. Az. Time Alt. Az.
27 Jan - 01:52:54 10° WSW 02:02:56 87° SSE 02:13:10 10° ENE visible
27 Jan - 03:58:09 10° W 04:08:19 76° N 04:18:31 10° E visible
27 Jan - 06:03:22 10° WNW 06:13:32 77° SSW 06:23:35 10° ESE visible
27 Jan - 08:08:50 10° WNW 08:17:24 33° SW 08:25:50 10° S daylight
27 Jan - 23:24:49 10° SSW 23:33:36 39° SE 23:42:36 10° ENE night (unlit)
28 Jan - 01:27:43 10° WSW 01:37:42 85° SSE 01:47:55 10° ENE visible
28 Jan - 03:32:53 10° W 03:43:02 76° N 03:53:15 10° E visible
28 Jan - 05:38:07 10° WNW 05:48:19 81° SSW 05:58:25 10° ESE visible
28 Jan - 07:43:29 10° WNW 07:52:18 35° SW 08:01:00 10° SSE daylight
28 Jan - 22:59:57 10° SSW 23:08:30 36° SE 23:17:17 10° ENE night (unlit)
29 Jan - 01:02:33 10° WSW 01:12:29 82° SSE 01:22:40 10° ENE visible
29 Jan - 03:07:38 10° W 03:17:45 76° N 03:27:59 10° E visible
29 Jan - 05:12:53 10° WNW 05:23:06 84° SSW 05:33:14 10° ESE visible
29 Jan - 07:18:10 10° WNW 07:27:12 38° SW 07:36:07 10° SSE daylight
29 Jan - 22:35:07 10° SSW 22:43:24 33° SE 22:51:56 10° ENE night (unlit)
30 Jan - 00:37:24 10° WSW 00:47:15 78° SSE 00:57:25 10° ENE visible
30 Jan - 02:42:23 10° W 02:52:29 76° N 03:02:43 10° E visible
30 Jan - 04:47:39 10° WNW 04:57:52 86° SSW 05:08:02 10° ESE visible
30 Jan - 06:52:51 10° WNW 07:02:05 41° SW 07:11:12 10° SSE visible
30 Jan - 22:10:19 10° S 22:18:20 30° SE 22:26:34 10° ENE night (unlit)
31 Jan - 00:12:16 10° SW 00:22:03 75° SSE 00:32:10 10° ENE visible
31 Jan - 02:17:09 10° W 02:27:12 77° N 02:37:26 10° E visible
31 Jan - 04:22:25 10° WNW 04:32:38 89° SSW 04:42:49 10° ESE visible
31 Jan - 06:27:34 10° WNW 06:36:57 44° SW 06:46:15 10° SSE visible
31 Jan - 08:36:56 10° WSW 08:39:42 11° WSW 08:42:27 10° SW daylight
31 Jan - 21:45:34 10° S 21:53:16 28° SE 22:01:11 10° ENE night (unlit)
31 Jan - 23:47:08 10° SW 23:56:52 72° SSE 00:06:56 10° ENE night (unlit)
01 Feb - 01:51:54 10° W 02:01:56 77° N 02:12:10 10° E visible
01 Feb - 03:57:12 10° WNW 04:07:23 89° NNE 04:17:36 10° ESE visible
01 Feb - 06:02:18 10° WNW 06:11:49 47° SW 06:21:16 10° SSE visible
01 Feb - 08:10:34 10° W 08:14:41 13° WSW 08:18:48 10° SW daylight
01 Feb - 21:20:52 10° S 21:28:13 25° SE 21:35:45 10° E night (unlit)
01 Feb - 23:22:02 10° SW 23:31:41 68° SSE 23:41:40 10° ENE night (unlit)
02 Feb - 01:26:40 10° W 01:36:39 78° N 01:46:54 10° E visible
02 Feb - 03:31:58 10° WNW 03:42:08 86° NNE 03:52:22 10° ESE visible
02 Feb - 05:37:02 10° WNW 05:46:40 51° SW 05:56:16 10° SSE visible
02 Feb - 07:44:36 10° W 07:49:40 15° WSW 07:54:43 10° SSW daylight
02 Feb - 20:56:13 10° S 21:03:10 23° SE 21:10:17 10° E visible
02 Feb - 22:56:57 10° SW 23:06:31 65° SSE 23:16:25 10° ENE night (unlit)
03 Feb - 01:01:26 10° W 01:11:24 79° N 01:21:37 10° ENE visible
03 Feb - 03:06:44 10° WNW 03:16:52 84° NNE 03:27:07 10° ESE visible
03 Feb - 05:11:48 10° WNW 05:21:31 54° SW 05:31:14 10° SE visible
03 Feb - 07:18:49 10° W 07:24:38 17° SW 07:30:26 10° SSW daylight
03 Feb - 20:31:39 10° S 20:38:08 21° SE 20:44:45 10° E visible
03 Feb - 22:31:54 10° SW 22:41:21 61° SE 22:51:10 10° ENE night (unlit)
04 Feb - 00:36:13 10° W 00:46:08 81° N 00:56:21 10° ENE visible
04 Feb - 02:41:31 10° WNW 02:51:37 82° NNE 03:01:51 10° ESE visible
04 Feb - 04:46:33 10° WNW 04:56:22 58° SW 05:06:11 10° SE visible
04 Feb - 06:53:10 10° W 06:59:35 19° SW 07:06:00 10° SSW visible
04 Feb - 20:07:09 10° SSE 20:13:06 18° SE 20:19:10 10° E visible
04 Feb - 22:06:51 10° SW 22:16:12 57° SE 22:25:55 10° ENE visible
05 Feb - 00:11:00 10° WSW 00:20:53 82° NNW 00:31:06 10° ENE visible
05 Feb - 02:16:17 10° WNW 02:26:21 81° NNE 02:36:35 10° E visible
05 Feb - 04:21:19 10° WNW 04:31:11 61° SW 04:41:06 10° SE visible
05 Feb - 06:27:36 10° W 06:34:32 21° SW 06:41:28 10° S visible
05 Feb - 19:42:47 10° SSE 19:48:05 16° ESE 19:53:29 10° E visible
05 Feb - 21:41:50 10° SW 21:51:04 54° SE 22:00:39 10° ENE visible
